Location: Libas
(9.8833°N, 125.9833°E)
Time: 23:28:24
(UTC+00:00)

H-II Stage 2 - Visible Passes

Search period start: 01 March 2021 00:00
Search period end: 11 March 2021 00:00
Orbit: 267 x 26245 km, 25.4° (Epoch: 28 February)

Date Brightness Start Highest point End Pass type
(mag) Time Alt. Az. Time Alt. Az. Time Alt. Az.
03 Mar 7.8 15:05:50 10° WNW 15:06:42 11° WNW 15:06:42 11° WNW visible
04 Mar 6.9 13:33:38 10° WNW 13:55:47 35° NW 13:55:47 35° NW visible
05 Mar 6.1 06:48:57 10° WSW 08:16:29 20° W 12:44:52 56° N visible
06 Mar 6.5 05:07:27 10° WSW 11:24:52 57° N 11:33:57 32° ENE visible
07 Mar 7.2 03:42:13 10° SW 09:58:36 62° NNW 10:22:40 10° ENE visible
10 Mar 7.3 14:18:24 10° WNW 14:26:25 21° WNW 14:26:25 21° WNW visible
